RH
3 3 3 3 3 3 3 3 3 3 3 3 3 3 3 3 2 3 2 2 2 2 3 4 5 5 5 5 6 6 5 6 5 5 6 7 12 16 17 18 18 17 16 14 14 17 19 22 23 28 44 51 50 55 62 69 74 69 61 61 65 66 69 72 73 72 67 67 71 75 76 76 75 75 79 73 68 76 78 77 76 67 57 47 38 35 34 33
3 3 3 3 3 3 3 3 3 3 3 3 3 3 3 3 3 3 3 3 2 2 2 2 3 4 5 4 4 5 5 5 4 5 6 5 7 11 16 17 18 17 16 16 14 15 16 18 18 21 39 49 49 51 55 67 76 72 62 57 62 63 65 67 70 72 65 63 65 69 77 75 74 78 78 73 68 74 80 74 70 63 48 39 38 37 34 33
3 3 3 3 3 3 3 3 3 3 3 3 3 3 3 3 3 3 3 3 3 3 2 2 2 3 4 5 3 3 4 5 4 4 5 6 6 6 10 14 16 16 17 17 14 15 15 17 17 23 39 45 47 49 51 66 75 77 70 58 56 58 57 58 65 71 64 63 64 65 75 73 74 78 74 74 70 72 76 65 58 60 52 42 37 35 36 36
4 3 3 3 3 3 3 3 3 3 3 3 3 3 4 4 4 4 4 4 3 3 2 2 2 2 4 4 4 6 7 9 10 8 6 6 6 6 7 9 13 15 16 17 14 14 14 15 19 27 37 39 45 53 54 64 72 77 77 63 57 54 52 52 58 66 65 65 62 62 70 70 72 74 72 76 74 70 69 61 57 60 63 56 43 35 36 37
4 3 3 3 3 3 3 3 3 3 3 3 4 4 4 4 4 4 4 4 3 3 3 2 2 3 4 5 8 11 14 18 19 16 12 8 6 6 6 6 10 12 14 16 14 13 12 16 26 33 37 37 40 44 41 46 60 74 73 62 59 57 55 55 57 63 66 64 59 59 65 67 68 68 71 76 74 68 61 61 62 65 70 61 45 38 35 36
4 3 3 3 3 3 3 3 3 3 3 3 4 5 5 5 5 5 5 4 4 4 3 2 3 3 4 8 11 16 25 30 26 19 16 12 7 6 6 5 7 10 12 13 14 13 13 22 34 36 37 34 29 26 23 26 41 64 70 58 56 59 58 59 62 64 65 64 62 62 64 64 63 67 75 75 72 71 65 65 67 71 73 57 40 35 35 37
4 3 3 3 3 3 3 3 3 3 4 5 5 6 6 6 6 6 6 5 5 5 4 3 3 4 8 16 17 19 27 28 22 18 15 13 9 7 6 5 6 8 9 11 14 12 16 28 34 34 30 24 21 20 25 27 30 54 70 58 53 57 56 59 64 65 63 63 64 68 71 71 70 73 80 77 74 75 73 74 74 75 77 65 50 38 36 37
4 3 3 3 3 3 3 3 3 4 5 6 7 7 7 7 7 7 6 7 6 6 6 5 6 8 12 18 17 16 17 16 16 14 11 10 9 7 6 6 5 6 8 10 13 12 19 29 28 28 24 19 21 23 36 38 30 49 66 59 54 55 54 57 60 60 60 60 61 64 73 80 79 78 80 78 77 77 78 79 77 77 79 77 67 51 38 36
5 4 3 3 3 3 3 3 4 5 7 8 8 7 8 8 9 10 11 12 11 10 9 8 10 11 12 14 15 15 12 10 11 10 8 7 7 8 7 7 5 5 8 9 13 15 21 27 24 24 21 20 21 23 38 42 37 50 63 60 58 53 51 56 56 55 57 59 61 61 72 81 81 81 78 75 77 77 77 77 76 77 79 80 75 57 38 37
5 4 3 3 3 3 3 4 5 7 8 8 8 8 10 13 15 18 19 21 21 21 19 15 13 12 14 16 17 16 11 7 7 6 7 5 6 8 7 7 6 5 8 9 12 16 20 24 22 24 23 21 21 27 38 43 46 55 59 63 62 54 52 56 54 54 54 56 60 62 69 76 76 79 79 77 77 76 75 75 77 78 80 84 80 62 43 43
6 4 4 3 3 3 3 5 7 8 9 9 9 12 15 18 22 24 26 27 29 30 28 23 19 17 18 18 17 16 10 7 6 5 5 4 6 8 8 8 6 5 7 8 11 15 18 20 22 26 23 20 25 35 42 46 53 55 57 65 62 54 54 56 55 57 57 55 56 59 64 70 72 75 79 80 79 77 77 76 76 77 82 87 85 72 54 49
6 5 4 3 3 3 4 6 8 9 9 10 12 15 18 21 23 25 26 28 29 31 31 27 24 22 20 16 15 15 10 8 6 4 6 6 7 8 9 9 6 5 6 8 10 13 17 20 22 25 22 22 30 36 35 41 53 56 60 65 59 53 53 55 56 59 61 58 56 58 59 62 64 69 74 78 82 83 81 80 77 76 84 89 88 80 64 58
6 5 4 3 3 3 4 6 9 10 10 13 16 19 21 21 23 24 25 25 26 28 30 29 25 22 20 16 15 14 11 8 5 5 8 8 8 9 8 9 7 5 6 7 10 12 16 18 19 22 24 25 30 32 27 31 52 61 63 66 62 58 54 52 56 59 61 59 57 60 60 56 59 68 74 75 83 88 83 83 80 77 82 87 87 82 71 66
6 5 4 4 3 3 4 7 9 10 12 16 19 22 23 23 24 24 24 24 25 26 28 29 26 23 21 17 16 14 12 9 7 8 10 11 12 11 10 10 8 6 6 6 9 12 16 17 15 19 25 24 25 30 25 26 48 64 68 69 66 64 56 50 54 57 58 56 54 59 60 56 62 71 74 73 80 87 85 82 82 81 84 85 85 84 77 69
6 6 5 4 4 3 4 8 10 10 13 17 19 22 23 24 26 25 25 25 24 24 26 28 27 24 22 19 17 15 13 11 9 9 12 14 14 14 12 10 9 7 6 6 7 10 15 17 14 17 25 25 24 26 24 25 41 60 70 70 64 57 49 47 54 56 57 54 51 57 55 55 66 73 71 71 74 81 83 82 83 86 87 87 85 85 84 77
6 6 6 4 4 3 4 7 10 11 13 15 15 17 17 20 24 26 27 26 24 23 24 25 25 24 22 19 17 16 15 10 8 11 14 15 14 14 12 11 10 8 7 7 6 8 13 16 14 17 23 24 24 23 20 22 33 52 60 54 48 42 35 39 49 54 56 52 47 50 50 53 66 72 71 71 71 76 80 82 87 89 87 89 89 87 90 86
8 6 6 5 4 3 4 7 10 11 13 14 13 13 14 17 20 22 24 25 23 21 21 23 23 22 20 19 18 17 16 11 8 13 16 13 12 12 11 11 11 9 8 7 7 8 10 14 14 17 22 22 24 23 20 20 28 43 46 36 30 27 25 27 36 48 52 49 44 45 47 53 63 69 71 74 73 74 79 84 89 90 85 86 89 86 88 90
13 8 5 5 4 3 4 6 9 11 12 13 15 16 17 18 19 20 21 23 22 19 20 23 23 22 19 20 19 17 18 15 11 12 13 11 11 12 11 12 12 10 9 7 7 6 6 8 10 14 20 22 25 23 19 20 21 27 30 26 21 20 20 19 29 45 49 46 44 40 43 52 59 64 68 74 76 76 81 89 91 89 84 83 86 82 81 90
13 12 7 5 5 4 3 5 8 10 11 12 15 16 15 16 21 24 21 19 21 20 20 21 21 22 21 20 20 17 17 18 15 12 11 12 14 14 14 15 14 12 11 10 9 8 6 6 8 13 18 20 25 23 16 17 19 19 20 19 20 22 22 19 27 43 48 48 44 39 44 51 59 65 67 72 77 78 81 89 92 89 84 81 86 82 77 87
9 12 10 6 5 5 3 4 7 9 10 12 12 12 12 16 20 22 20 17 17 18 18 19 20 21 21 21 20 18 16 17 17 15 14 15 17 17 18 17 16 15 14 13 12 12 12 8 6 10 15 14 17 18 13 14 17 18 17 18 23 27 26 24 31 43 47 47 45 45 48 52 62 69 69 72 76 77 79 84 90 89 85 82 85 83 78 85
4 8 12 9 6 5 4 4 6 8 10 11 11 9 11 14 13 15 17 16 16 16 17 18 19 20 20 21 21 19 17 16 16 16 16 17 18 18 18 16 16 16 16 17 15 16 16 11 7 7 11 10 10 13 15 16 17 17 18 19 22 26 29 32 38 45 47 47 47 48 48 53 64 67 68 72 73 76 78 80 87 90 88 86 86 85 80 80
5 4 8 10 8 5 4 4 4 7 10 10 9 8 9 10 10 13 16 16 17 16 16 17 18 19 20 21 20 17 17 15 14 16 15 16 17 17 16 16 16 16 16 17 16 18 18 15 13 13 12 13 13 15 17 18 17 17 17 18 20 24 31 37 40 44 50 51 48 49 52 56 63 63 64 70 70 75 80 83 89 89 89 90 87 86 83 78
8 6 5 8 10 8 5 4 4 6 8 7 7 8 9 9 10 14 18 19 18 17 16 17 18 19 19 20 19 18 17 15 14 15 14 13 16 16 15 15 16 16 15 15 15 17 16 14 15 15 14 13 13 12 14 16 17 18 15 15 16 19 26 33 38 43 50 54 48 50 57 60 64 62 58 62 64 67 74 83 91 87 86 89 86 86 85 77
9 8 6 5 8 10 7 4 4 5 6 7 7 8 10 10 12 15 17 19 19 18 17 16 16 17 19 19 19 20 18 15 16 16 15 13 14 15 14 16 16 15 15 14 13 15 14 13 14 14 12 13 11 11 11 11 13 14 13 12 12 14 16 21 32 40 49 55 49 50 59 57 56 57 54 60 64 62 66 77 87 90 90 89 86 87 87 80
9 10 9 6 6 8 9 6 4 5 5 6 7 10 12 12 13 14 16 22 23 21 18 15 15 17 18 19 19 20 18 16 17 17 17 14 14 15 15 15 14 14 17 16 13 13 12 12 13 12 12 14 14 13 10 8 10 10 11 13 13 14 15 15 27 39 52 59 47 47 65 59 43 45 52 58 61 60 63 69 78 89 95 92 86 85 86 82
10 10 9 9 6 6 9 8 5 5 5 6 7 10 13 14 13 13 17 26 26 22 19 16 15 16 16 17 17 17 16 16 17 18 17 14 13 15 16 17 16 16 17 15 13 12 10 11 12 12 13 13 12 11 10 9 9 9 11 12 11 15 21 22 29 39 48 51 36 35 59 60 42 42 49 52 58 61 60 64 74 86 89 87 87 89 90 82
9 10 9 10 9 6 7 8 7 5 5 7 8 9 13 12 12 13 21 32 27 20 20 17 15 14 14 16 15 15 16 16 16 17 17 15 14 16 17 18 17 16 16 15 14 12 10 11 11 13 12 11 10 11 12 12 11 10 11 12 11 12 18 22 27 34 38 37 31 30 46 60 53 45 46 48 53 56 54 57 68 82 84 80 87 95 95 86
7 9 9 10 10 8 7 7 9 7 5 6 7 9 11 11 13 15 24 35 27 18 19 16 14 13 13 14 13 14 15 15 15 15 15 14 15 16 17 18 17 16 15 14 14 14 13 14 13 14 12 11 12 13 14 14 12 13 12 11 12 11 12 15 15 24 35 35 30 30 45 67 60 41 40 46 52 59 63 66 69 80 84 79 86 95 92 87
7 7 8 9 10 10 8 6 8 8 6 5 5 8 10 12 15 14 23 33 25 17 17 15 13 13 12 12 12 13 14 14 15 15 15 15 16 17 17 17 16 15 15 14 14 13 14 15 14 14 13 13 13 13 13 13 13 14 14 12 13 13 13 12 12 24 35 29 21 23 41 64 60 46 51 60 68 74 76 78 78 84 87 82 86 91 89 90
7 7 7 8 9 10 9 7 7 8 7 5 4 7 10 13 14 16 27 33 24 18 17 13 13 13 11 12 12 13 14 13 14 15 16 16 15 16 16 16 16 15 16 15 14 15 15 15 14 14 14 14 14 13 12 12 13 14 14 13 14 16 15 12 19 30 33 27 22 23 34 52 58 62 78 84 80 76 72 72 75 81 88 90 91 88 85 91
8 7 7 8 8 9 10 8 7 8 8 5 4 6 10 13 15 18 26 27 20 19 16 12 13 12 11 12 11 12 12 13 13 14 14 15 14 13 13 15 16 17 16 15 15 16 16 15 14 14 14 14 14 14 12 12 14 13 13 14 14 18 18 15 19 24 25 27 31 32 38 54 61 60 70 78 73 71 72 70 66 67 71 79 89 88 83 88
9 8 7 7 8 9 9 9 8 7 8 6 4 5 8 14 17 15 19 22 20 19 16 13 13 12 11 11 10 11 11 11 12 12 13 13 13 12 12 13 15 17 17 15 15 16 15 14 14 14 15 15 15 15 14 14 16 14 14 15 18 26 31 30 32 30 24 25 35 41 43 57 69 61 57 64 65 65 69 69 66 65 67 74 84 88 86 89
11 10 8 7 8 8 9 9 9 8 8 7 5 3 6 15 17 11 15 22 21 18 17 15 13 12 11 10 10 11 11 11 11 12 13 13 13 12 11 11 13 16 17 15 16 16 16 14 14 15 15 16 17 17 16 17 17 17 17 17 22 35 46 48 46 44 35 29 33 38 44 63 81 78 68 66 64 62 63 64 64 67 73 80 86 90 89 88
13 11 10 9 8 8 8 9 9 8 8 8 5 3 7 13 13 12 17 21 20 19 19 17 14 11 10 10 10 10 10 11 11 11 12 12 12 11 11 12 12 15 16 16 16 16 16 16 15 16 16 16 17 17 16 17 18 19 19 19 20 27 38 43 44 40 34 32 33 35 48 69 81 82 73 64 61 61 63 64 63 64 68 72 78 86 89 86
15 13 11 11 10 9 8 9 10 8 8 9 5 3 7 8 8 15 22 22 21 20 16 15 14 11 10 10 9 9 10 11 11 11 12 11 12 13 13 13 13 15 15 14 15 15 16 17 16 16 17 17 17 17 17 18 20 22 21 22 22 22 26 33 39 34 28 43 60 60 60 64 68 73 66 58 60 63 65 67 65 64 62 60 63 70 79 83
17 15 13 13 12 10 8 8 9 8 8 9 6 4 5 5 4 13 21 20 21 20 15 14 12 10 10 10 10 10 10 10 11 11 11 11 13 14 15 14 14 15 15 14 15 15 15 16 16 16 17 17 18 17 17 17 19 23 22 23 25 25 25 28 33 34 35 55 75 77 75 69 64 65 59 57 64 65 64 66 63 60 58 56 56 57 63 72
17 14 14 14 14 12 10 9 9 9 8 8 7 5 5 5 5 13 22 21 19 18 17 15 13 11 11 11 11 11 10 11 11 11 11 11 12 13 15 15 15 15 14 14 14 13 15 16 16 17 17 18 18 16 17 18 19 21 22 24 26 27 28 27 32 41 50 61 69 77 84 76 64 61 56 58 66 67 65 63 58 57 56 56 57 56 57 61
15 13 14 15 16 15 12 10 9 9 9 8 8 7 6 6 5 10 17 16 14 15 17 17 16 13 12 12 11 12 12 11 11 11 11 11 12 13 15 15 14 14 14 14 13 13 14 14 15 17 17 19 20 18 18 20 21 21 21 25 27 27 27 25 30 41 52 65 74 81 85 70 58 56 52 56 66 67 63 57 52 51 51 54 56 55 56 57
14 12 15 17 18 16 14 13 12 10 9 9 8 7 7 6 6 6 8 8 10 13 16 17 16 14 13 13 12 11 12 11 11 12 11 11 13 14 15 15 14 14 13 12 12 13 13 14 14 15 16 19 20 20 22 23 23 21 22 26 26 25 25 26 30 34 48 73 81 78 75 60 48 47 47 55 65 61 54 50 46 44 44 48 53 53 54 55
14 12 16 22 23 21 18 16 14 12 10 8 8 7 7 6 6 6 6 6 8 13 16 16 17 16 15 15 13 12 12 12 12 12 11 11 13 14 15 15 14 13 12 11 12 12 13 13 14 14 15 17 17 18 22 23 22 22 25 26 24 23 24 30 37 35 43 69 78 75 73 56 42 44 45 52 58 53 48 46 42 41 41 42 45 47 50 51
15 12 17 28 30 24 22 22 19 16 11 9 8 7 6 6 5 5 6 5 7 13 17 17 18 17 17 17 15 12 12 12 12 12 11 11 13 15 16 15 14 12 11 12 11 11 12 12 14 14 13 15 16 16 18 20 21 23 23 21 21 23 23 30 45 44 39 49 56 59 61 48 41 46 46 47 51 49 46 44 42 44 44 42 41 39 40 44
14 13 19 34 37 30 28 31 29 24 19 17 15 11 9 9 8 7 6 6 9 15 18 19 19 19 18 18 15 12 12 12 12 12 11 11 12 14 15 14 13 13 13 13 12 12 12 11 13 15 14 17 18 17 19 23 23 24 24 22 22 24 22 27 40 43 40 42 42 44 47 42 42 47 47 48 49 47 45 43 42 44 45 43 42 38 36 36
14 12 16 33 43 38 35 37 34 29 27 28 26 21 19 16 12 9 8 11 15 18 19 19 20 19 18 17 14 12 12 12 13 12 12 12 12 13 14 14 13 14 14 14 14 13 13 12 13 16 16 16 19 22 24 24 22 22 24 25 26 26 24 23 26 29 35 39 38 43 47 42 39 43 47 50 48 44 43 40 41 44 45 43 40 38 37 34
14 13 13 27 41 43 42 41 39 38 37 38 34 27 25 23 18 13 12 16 19 19 18 18 19 18 17 16 14 12 12 12 13 13 13 12 12 13 14 14 14 14 14 14 16 16 16 16 15 17 19 19 23 27 25 21 19 19 21 23 27 29 27 26 26 26 32 34 33 40 45 40 37 40 44 46 44 41 40 41 43 44 43 41 38 37 37 35
12 13 14 23 35 43 46 45 43 43 42 41 36 30 26 25 23 20 18 18 20 18 18 19 19 18 16 15 14 13 12 13 13 14 14 13 14 14 14 14 14 15 15 16 18 18 18 19 17 18 25 29 30 26 20 19 20 19 19 22 28 31 28 28 30 29 29 31 32 36 38 36 36 39 40 41 41 40 41 45 48 47 43 39 37 38 38 37
13 13 16 25 35 42 47 47 44 43 43 41 38 34 30 27 25 24 22 20 19 19 22 23 22 19 17 15 15 14 13 13 13 15 15 14 14 14 14 15 15 15 16 18 19 19 18 19 18 17 20 22 23 21 18 20 21 20 20 23 29 31 28 27 31 30 29 32 34 35 35 35 35 37 38 39 39 41 44 49 52 50 44 38 35 38 41 39
16 13 14 25 37 44 49 51 48 45 45 44 41 37 34 33 32 29 24 22 22 22 23 25 23 20 18 17 16 15 14 13 13 14 15 14 15 15 15 15 15 16 17 18 20 20 18 17 18 18 17 16 17 19 19 19 20 21 20 22 29 32 29 28 29 28 27 31 33 33 34 35 35 36 37 39 42 45 47 50 50 46 42 37 35 38 42 42
18 16 16 24 37 47 52 55 52 48 47 47 45 42 42 45 48 43 31 24 23 24 24 24 22 21 20 18 17 16 15 14 14 14 14 14 15 15 15 16 16 16 17 19 20 20 20 19 18 18 19 19 19 20 20 19 21 22 20 21 26 30 29 28 28 26 26 29 31 31 32 33 34 36 38 41 43 43 43 43 43 41 41 38 35 37 44 48
18 17 18 21 30 41 52 57 55 50 50 50 49 49 50 52 55 52 42 31 26 27 29 26 22 20 20 18 17 17 17 16 16 15 14 14 15 15 15 16 16 16 17 19 20 20 20 20 20 21 21 21 21 21 21 21 22 23 22 21 24 28 30 29 27 28 30 31 31 32 33 34 35 38 40 41 41 40 39 40 40 41 40 37 35 40 47 52
19 17 18 19 23 31 44 57 60 54 53 57 56 54 54 56 55 50 45 41 35 32 35 33 26 22 20 19 18 19 19 19 18 17 15 15 15 16 16 17 16 17 18 19 20 21 21 20 21 21 21 21 22 22 21 22 22 23 24 24 24 27 30 30 29 30 32 33 33 35 36 37 38 40 41 40 40 39 37 36 35 36 35 34 37 45 52 56
21 19 20 21 23 27 34 48 59 60 60 62 60 56 55 58 57 49 44 45 41 37 39 38 35 29 25 23 22 21 21 20 18 18 17 16 17 17 17 17 17 17 19 20 20 20 20 21 21 21 21 21 22 21 21 22 23 25 27 27 27 28 29 30 31 31 31 33 36 37 38 39 40 40 40 40 38 37 35 33 33 35 36 38 44 51 57 62
23 21 22 24 27 30 32 40 52 61 65 64 61 58 57 57 57 51 46 44 41 40 40 38 37 35 32 30 28 24 22 21 19 19 18 17 17 17 17 18 18 18 19 20 20 20 20 20 21 22 21 20 21 21 20 20 23 28 32 31 31 30 30 30 30 30 32 34 35 36 37 38 39 38 36 35 34 34 34 32 33 36 39 45 52 57 62 67
Wind_Speed
8 8 7 7 7 7 7 6 6 6 6 5 5 5 4 4 4 4 3 3 2 2 2 2 2 2 2 3 4 5 6 7 9 12 15 17 19 19 17 14 12 10 8 6 4 3 1 1 2 2 3 7 10 10 11 11 11 14 15 9 12 8 6 11 11 10 10 12 13 15 15 13 11 11 13 11 7 6 3 3 1 3 7 8 8 8 9 10
8 8 8 8 8 8 8 8 8 7 7 6 6 6 6 6 6 5 5 4 3 2 1 1 1 1 2 2 3 5 6 7 8 10 12 15 18 20 19 17 15 12 10 7 5 4 3 2 1 2 2 8 9 8 8 9 8 9 12 11 7 4 4 8 10 8 8 10 11 14 16 15 13 10 11 11 9 8 7 6 3 5 8 8 8 8 8 8
8 8 8 9 9 9 9 9 8 8 7 7 7 7 7 7 7 7 6 5 4 2 1 1 1 1 2 2 3 5 6 6 7 8 10 13 16 19 19 19 17 15 12 9 6 5 4 3 0 2 4 8 7 7 6 6 6 4 6 11 9 6 7 7 8 8 8 9 9 13 17 17 14 10 11 11 8 8 10 7 5 6 4 3 5 7 7 8
8 8 9 9 9 9 9 9 8 8 7 7 7 7 8 8 8 7 7 6 5 3 2 1 2 2 3 4 4 5 5 4 4 6 8 11 15 17 19 19 19 16 14 11 8 6 5 4 3 4 5 5 5 7 7 5 5 2 2 7 9 9 10 8 7 7 7 8 8 12 18 17 14 13 12 10 9 10 10 8 2 2 0 1 2 4 6 7
9 9 9 9 9 9 9 9 8 8 7 7 7 7 8 8 8 8 8 7 6 4 2 2 2 3 4 5 4 4 4 3 4 4 5 9 13 16 18 19 19 18 16 13 10 8 7 6 6 6 5 3 3 5 7 6 4 1 1 5 7 6 7 7 6 6 7 8 7 11 17 17 15 15 14 12 11 10 8 8 6 4 3 3 3 3 4 6
9 9 9 9 9 9 9 8 8 8 7 7 7 7 8 8 8 8 8 7 6 5 3 2 2 3 3 4 3 4 4 4 5 5 5 7 10 14 17 18 19 19 17 15 13 10 9 9 8 6 4 1 3 4 6 7 5 2 1 2 6 6 4 5 7 6 6 8 7 10 15 17 17 15 13 13 11 9 8 8 8 7 5 3 3 3 3 4
9 9 9 9 9 9 8 8 8 7 7 7 7 7 7 8 8 8 7 7 6 5 4 2 2 3 5 6 5 3 4 4 6 7 7 8 9 13 16 18 20 19 18 17 15 13 11 11 9 6 3 2 3 4 7 7 6 5 4 1 5 7 6 5 6 5 5 6 6 9 12 14 15 15 14 13 11 10 10 10 10 9 5 3 2 2 3 4
9 9 8 8 9 9 8 8 7 7 7 7 7 7 7 8 8 7 7 7 6 5 4 3 4 5 6 7 6 3 1 4 6 7 8 9 10 12 15 17 20 20 19 18 17 15 14 13 11 10 8 5 2 4 7 5 6 7 6 2 4 7 7 5 4 3 4 6 6 8 10 11 13 15 16 15 13 12 12 12 12 11 7 4 4 3 5 6
9 9 8 8 9 9 8 7 7 7 7 7 7 7 8 8 8 8 8 8 8 7 5 4 4 6 6 6 5 6 2 3 7 7 8 10 10 12 15 17 20 21 20 19 19 18 17 16 14 14 11 6 1 5 4 3 4 6 7 3 2 6 7 5 2 1 2 5 6 7 10 12 14 16 17 16 15 15 14 13 12 12 8 5 4 3 6 7
8 9 8 8 8 9 8 7 7 6 6 6 7 8 8 9 10 11 12 12 12 11 9 7 5 6 6 7 8 9 3 2 6 7 8 9 10 11 14 16 19 21 21 21 21 20 20 18 16 15 11 6 1 4 3 1 1 3 7 7 4 5 6 4 3 2 2 4 6 7 10 12 14 17 18 17 17 17 16 13 12 12 8 6 5 3 6 8
8 8 8 8 9 9 8 7 6 6 6 7 7 8 9 11 12 14 15 16 15 15 13 11 9 8 8 9 10 8 3 1 3 7 8 9 11 11 12 14 17 20 22 22 22 21 20 18 17 15 10 5 3 3 4 3 2 4 8 10 6 4 3 2 2 2 2 3 5 8 10 12 14 16 18 17 17 17 17 15 14 12 10 9 7 4 7 8
8 8 8 8 8 9 8 7 6 6 6 7 8 9 10 11 12 13 14 15 15 15 14 13 12 11 11 12 11 9 7 4 4 8 8 10 11 12 12 12 14 17 20 22 22 21 20 19 19 16 10 6 5 5 5 4 4 7 10 9 4 3 3 1 1 2 3 4 5 8 9 12 14 14 17 18 18 18 17 17 15 13 12 12 9 6 7 7
8 8 8 8 8 8 8 6 5 5 6 7 8 9 9 10 10 11 11 12 12 12 12 11 12 12 13 14 14 12 9 6 5 7 8 10 11 12 13 13 13 15 17 20 21 20 20 21 20 16 11 8 6 4 3 2 6 9 11 8 5 5 6 4 4 4 5 5 5 7 8 8 9 12 16 20 20 19 19 18 17 15 14 14 11 8 7 6
8 7 7 7 7 8 7 5 4 4 5 6 7 8 8 8 8 8 9 9 9 10 9 9 9 11 12 14 16 15 11 7 6 7 8 10 11 11 11 11 12 13 15 18 20 19 19 22 21 16 12 9 6 4 1 0 7 10 11 9 8 9 8 7 6 6 5 5 4 7 8 5 7 16 19 21 21 21 21 19 17 17 17 17 15 11 9 7
9 7 6 6 7 7 6 4 3 4 5 5 6 6 6 6 6 6 6 6 7 8 8 7 7 9 11 13 15 16 13 7 6 8 9 10 11 11 11 11 10 11 13 16 18 18 19 23 21 17 15 11 8 6 3 3 7 10 12 11 11 12 11 10 10 8 7 5 4 7 7 4 10 17 19 20 21 21 22 20 19 20 20 19 16 13 11 9
10 8 6 6 6 6 6 3 2 3 4 4 4 4 3 4 4 3 3 3 4 6 7 6 6 8 10 12 14 16 15 9 5 7 10 11 12 13 13 12 11 11 12 13 14 16 20 23 20 18 17 13 10 7 5 4 6 10 13 13 13 13 13 12 12 11 9 7 5 6 5 3 9 14 15 17 20 22 21 21 22 22 19 20 20 18 16 13
10 9 7 5 5 6 5 3 0 2 3 3 2 2 2 2 2 1 2 2 2 5 7 6 6 7 9 12 12 13 14 11 6 7 11 13 14 15 15 14 12 11 11 11 12 15 19 20 19 17 17 15 13 11 7 7 10 12 14 14 14 15 15 15 14 12 10 9 6 6 6 5 7 11 12 13 17 21 22 21 23 23 19 21 24 22 22 18
9 9 8 5 4 5 5 3 1 2 3 3 2 2 1 2 2 1 1 1 1 4 6 7 8 8 9 11 12 11 12 11 8 8 11 14 15 15 15 14 12 11 11 10 11 13 15 17 19 18 19 18 16 15 10 7 8 9 10 13 15 17 18 18 15 12 9 9 8 5 4 6 6 8 10 11 15 20 22 21 22 23 20 22 25 23 21 21
8 8 8 6 4 4 4 3 1 3 3 3 3 5 5 5 4 3 3 1 1 1 3 5 7 7 9 11 11 11 10 10 9 9 13 15 15 14 13 12 10 9 9 8 8 9 10 14 19 21 21 19 18 17 12 6 3 6 8 14 16 15 16 16 13 11 8 8 9 4 1 4 5 5 7 10 13 18 23 24 24 24 23 23 24 22 21 21
9 8 8 7 5 4 3 3 2 3 3 3 6 7 6 6 5 4 5 5 3 3 4 4 4 5 9 10 9 10 10 10 9 10 11 12 11 10 10 9 9 9 10 9 6 4 6 11 20 24 23 19 16 14 11 8 8 8 8 14 12 6 6 9 11 8 8 8 8 4 1 3 5 5 6 8 11 16 23 26 26 26 26 25 24 23 23 22
11 9 7 7 6 4 3 3 3 3 3 5 7 7 6 6 6 5 4 3 4 4 4 5 4 5 8 8 8 10 11 10 9 10 9 8 7 7 8 7 6 7 8 6 4 4 6 9 15 19 17 15 12 10 9 9 9 9 9 8 5 4 3 8 10 7 8 9 6 5 3 2 7 7 5 7 8 11 19 25 26 26 27 27 26 25 25 22
12 11 8 7 7 5 4 3 4 4 5 7 8 8 7 7 8 7 4 1 4 4 3 5 5 5 5 7 8 9 10 9 7 7 6 4 4 4 6 5 3 4 4 2 2 4 5 4 6 7 7 9 9 9 9 8 7 8 10 8 5 5 5 10 11 9 10 10 8 7 5 4 8 8 5 6 7 8 13 21 26 28 29 29 28 28 27 22
12 11 10 8 7 6 5 4 4 5 7 8 8 8 8 8 9 9 8 3 2 4 3 3 4 4 4 4 6 7 9 9 6 4 2 1 0 1 3 3 1 1 2 0 2 6 4 3 7 7 6 7 8 8 8 7 7 7 8 8 6 5 7 10 10 9 10 11 9 8 8 8 9 8 7 7 8 8 10 16 24 28 29 30 29 29 28 21
12 11 11 10 8 7 6 5 6 7 8 7 7 7 6 6 7 6 8 8 3 3 2 2 4 7 6 4 4 4 5 6 5 4 2 2 2 3 1 1 2 2 4 3 3 6 3 8 9 8 6 4 5 5 6 8 9 7 2 2 4 5 7 9 8 9 11 12 10 8 9 11 11 9 9 9 9 9 10 13 21 25 28 29 28 29 29 23
11 11 10 10 9 8 6 6 7 8 9 7 6 6 4 4 5 5 8 9 4 5 4 3 5 8 8 6 5 3 0 1 3 3 2 2 5 4 1 1 2 5 7 7 3 5 4 7 8 8 6 4 5 7 8 9 9 5 1 1 3 4 5 8 9 10 12 12 10 8 7 7 7 8 8 11 11 8 9 12 17 23 26 27 27 29 28 23
12 11 10 9 10 9 7 7 8 8 9 7 4 4 2 2 5 6 9 10 4 5 5 4 4 4 5 6 5 2 2 1 1 2 3 5 6 4 2 1 4 7 8 6 3 4 2 3 4 5 5 6 7 6 6 6 7 4 2 1 1 4 4 4 8 11 11 9 6 8 9 6 7 6 7 11 11 9 9 10 15 21 22 23 26 28 26 21
12 12 11 9 9 9 8 8 8 8 9 7 4 3 2 3 4 5 7 7 3 4 5 4 3 2 4 6 3 2 2 1 2 3 6 6 6 5 2 1 3 6 6 4 2 3 3 3 5 5 4 5 7 6 3 2 3 2 1 1 2 4 3 2 3 8 9 8 5 9 13 11 11 9 8 11 11 9 9 8 12 18 19 19 22 25 22 19
14 12 12 11 9 9 9 8 9 9 8 6 4 3 3 3 3 3 4 3 0 4 5 3 1 1 4 6 4 3 2 2 3 6 8 6 6 4 1 2 1 2 2 2 3 2 3 4 5 6 6 7 9 6 3 2 2 0 1 3 6 5 3 4 5 6 9 9 8 13 14 9 10 12 10 12 12 8 7 8 10 15 18 18 21 22 18 17
16 13 12 12 11 9 9 9 8 9 7 5 5 5 4 3 3 4 4 1 2 3 2 3 2 2 5 6 5 5 4 1 3 6 8 7 6 3 2 3 3 2 0 4 6 3 4 5 4 5 7 9 9 7 6 5 3 2 3 4 5 5 6 10 8 8 11 8 7 11 15 10 5 9 10 9 8 6 8 10 10 12 16 19 21 20 17 15
18 16 13 12 12 11 10 9 8 9 8 6 7 7 6 6 5 3 2 1 2 2 1 3 4 4 7 8 4 3 4 2 2 5 6 7 6 3 3 5 4 2 1 5 7 6 5 7 6 7 7 8 10 11 10 9 6 5 4 5 7 7 4 8 9 10 9 5 5 3 12 16 3 4 5 4 2 5 8 10 10 9 12 17 19 18 17 17
19 18 15 13 12 12 11 9 8 9 8 8 10 9 8 7 6 3 1 3 2 3 3 4 6 6 6 6 5 3 4 3 4 7 8 8 6 4 4 5 3 3 3 3 5 7 7 9 9 6 3 2 3 6 9 10 8 7 7 7 6 4 2 5 7 9 5 2 5 8 4 16 7 4 5 6 3 7 8 7 8 8 8 11 16 16 16 19
19 19 17 15 13 12 12 10 9 9 8 10 11 11 10 8 8 8 4 2 2 3 4 4 7 7 5 5 6 5 6 6 6 8 8 7 7 5 5 6 4 3 4 5 7 8 8 11 12 8 3 1 2 4 7 8 6 7 8 6 3 1 2 2 2 4 3 1 4 7 2 8 7 8 7 7 6 5 4 5 5 6 6 8 13 15 15 18
20 19 18 16 15 13 13 12 9 9 9 10 11 12 11 7 6 11 8 3 1 4 4 6 11 11 8 6 5 4 6 8 8 9 9 9 9 8 8 8 7 5 4 4 7 5 5 12 13 10 5 2 3 5 6 5 4 6 6 4 2 3 3 1 1 1 1 0 4 4 1 4 2 4 4 6 6 4 3 4 4 5 6 7 10 12 14 18
20 20 18 16 16 15 14 13 11 9 9 10 12 12 13 10 6 8 9 5 1 6 6 6 12 14 13 9 5 5 6 7 9 10 11 10 9 8 9 9 8 5 4 3 4 5 5 7 10 10 7 3 3 3 5 4 5 7 5 3 3 4 4 2 2 1 2 2 3 5 1 2 1 3 6 6 4 3 3 4 5 6 7 7 9 11 14 19
18 20 18 15 16 16 14 13 11 10 11 12 13 15 17 17 11 7 7 5 3 6 4 5 11 14 15 11 7 7 8 7 9 11 11 9 6 6 5 7 10 7 5 4 2 4 5 4 6 12 11 6 3 2 3 5 6 8 6 3 2 3 4 4 3 2 2 1 3 5 2 1 3 5 6 5 3 3 4 5 6 7 7 8 9 10 14 18
16 17 18 15 16 17 15 13 13 12 13 13 15 19 20 18 12 9 7 5 3 7 4 3 7 10 12 9 5 6 9 9 9 10 12 9 6 4 5 7 8 7 6 5 2 4 5 5 2 8 8 7 6 5 6 5 5 7 7 4 5 5 4 4 3 0 1 1 2 3 1 1 2 4 5 5 3 2 4 5 6 7 7 8 8 8 11 15
14 14 15 14 15 15 13 13 14 14 14 15 18 20 20 17 13 11 9 6 4 7 7 3 1 3 4 2 3 5 8 10 9 10 11 10 9 9 10 9 7 6 6 4 2 2 4 6 6 5 5 5 6 7 8 5 4 6 5 6 7 6 4 4 2 2 3 1 1 1 2 4 2 2 4 4 3 2 3 5 5 7 8 9 10 9 9 11
12 11 13 13 13 13 13 14 15 15 15 18 20 20 20 18 15 13 11 9 8 7 6 5 4 2 2 3 5 6 5 8 10 9 10 11 10 11 13 12 9 6 6 4 4 4 5 5 6 8 7 7 6 7 8 7 5 2 3 6 6 4 3 3 2 1 2 1 1 2 2 5 5 3 2 1 2 4 5 5 6 7 8 9 10 10 11 10
11 10 10 11 10 11 13 14 14 15 17 19 20 19 19 19 17 14 14 13 12 10 7 3 3 3 5 7 6 6 5 4 9 9 8 10 12 13 14 12 9 7 5 2 5 5 6 7 4 5 7 9 7 7 7 7 5 1 4 7 4 3 3 3 3 2 2 1 1 2 3 4 4 3 2 2 4 4 4 5 7 8 9 9 9 10 11 11
10 9 8 9 9 10 11 12 12 14 16 19 20 19 19 19 16 13 12 13 13 11 10 6 5 7 9 10 8 4 5 3 6 9 9 11 13 15 14 11 9 8 5 2 3 4 4 6 3 2 4 6 4 6 6 6 3 3 7 7 4 4 5 4 4 4 3 2 2 2 2 5 4 3 4 4 4 5 6 7 9 11 11 11 11 11 12 12
10 9 8 8 10 11 11 10 10 12 15 16 17 18 18 19 18 14 11 12 13 12 11 9 6 7 9 10 9 7 6 4 3 8 10 12 14 14 14 12 9 7 5 3 2 3 3 3 1 0 1 3 3 3 4 6 3 4 6 6 6 6 6 5 3 2 4 3 3 4 2 6 6 5 6 6 5 6 8 10 12 12 13 13 13 14 14 14
10 10 9 10 13 13 12 11 10 12 13 13 13 14 15 16 18 15 11 11 13 11 10 9 6 5 8 10 9 8 8 4 1 5 9 12 14 13 14 14 11 8 5 2 0 1 4 5 3 1 1 3 4 3 6 8 5 4 3 4 7 6 5 5 3 5 7 4 4 5 2 5 7 7 7 7 7 9 11 13 13 13 14 14 15 16 16 17
11 9 10 12 15 16 15 13 12 12 11 9 9 11 12 14 16 14 11 11 11 11 9 8 7 6 9 11 9 7 8 5 3 5 7 11 13 12 15 16 12 9 6 3 2 4 5 6 4 3 3 4 7 10 12 10 6 5 2 2 5 5 3 2 1 5 10 7 5 4 2 4 7 7 8 8 10 12 13 14 14 15 16 17 18 18 18 18
12 10 11 14 17 18 17 13 11 11 10 9 11 12 13 14 14 13 12 11 10 11 10 7 7 7 8 10 10 9 8 5 4 4 6 9 13 14 16 13 8 7 6 4 3 4 5 6 6 5 5 4 7 11 11 7 4 3 2 3 7 7 5 4 4 7 8 7 6 4 3 5 7 7 9 10 12 13 13 14 16 17 18 19 20 20 19 19
13 11 11 15 18 19 18 16 13 12 12 12 12 13 14 15 14 13 13 12 11 10 8 6 6 7 7 8 9 9 8 5 7 7 6 10 14 14 13 9 4 4 4 2 2 3 3 5 7 7 5 6 7 6 6 4 3 5 2 7 12 10 6 6 8 8 6 6 8 7 5 6 8 8 9 11 13 14 14 15 16 16 17 19 20 20 19 19
13 11 10 15 20 20 20 19 16 15 15 14 12 11 12 14 14 13 13 14 13 10 8 9 9 10 10 9 8 8 7 6 8 9 8 12 14 11 11 9 4 2 0 2 3 5 4 2 8 8 7 9 9 6 3 2 2 4 1 7 15 13 7 7 9 8 6 6 9 9 8 8 9 9 10 12 14 15 14 14 14 16 18 19 20 20 19 18
13 12 10 13 18 21 22 22 20 18 17 16 14 11 9 10 9 10 13 14 12 10 11 13 12 13 15 13 10 10 9 8 10 10 9 11 12 10 11 11 8 4 1 1 3 7 9 3 4 5 5 6 6 4 3 1 2 4 5 5 15 15 10 9 9 7 5 5 7 8 8 9 10 10 11 13 13 14 14 14 16 18 20 20 20 20 19 18
13 13 11 12 16 19 22 23 23 22 20 18 16 13 11 9 8 7 10 13 13 10 10 11 12 13 15 16 14 12 10 9 10 11 11 11 12 12 13 12 11 7 3 2 2 4 9 8 5 5 4 3 2 3 4 3 3 6 7 4 14 16 11 9 8 6 5 5 6 6 7 9 9 10 11 12 12 13 15 17 19 21 22 21 20 19 18 18
13 13 12 13 15 18 21 22 24 25 22 19 18 17 16 13 9 6 6 9 12 8 6 7 9 12 17 19 17 13 11 10 7 9 12 13 13 14 14 14 14 10 6 5 5 3 7 9 7 6 5 3 2 2 4 3 4 6 5 2 11 15 12 9 7 5 4 5 5 5 7 8 8 9 10 11 13 15 18 19 21 21 22 22 21 19 18 17
14 14 14 14 15 17 20 21 22 23 21 18 17 17 17 14 11 6 4 4 6 4 2 3 5 11 14 15 16 14 12 11 7 6 9 12 13 14 13 13 14 13 11 9 8 7 7 7 7 5 4 4 4 2 2 3 4 4 3 1 8 12 12 8 6 4 3 4 5 6 8 8 9 9 10 12 15 17 19 19 20 21 21 22 21 19 17 15
14 14 15 15 16 17 20 21 21 21 19 17 17 17 17 14 12 9 7 2 3 1 1 2 1 6 11 11 13 14 13 13 12 9 8 9 11 12 12 11 12 13 14 13 11 10 9 8 9 7 3 4 5 3 3 3 2 1 2 4 7 10 9 7 5 4 4 6 6 7 9 9 10 11 12 14 16 17 18 18 19 20 20 20 20 17 15 13
15 15 16 16 17 17 19 20 21 21 19 18 18 18 18 15 12 11 9 5 2 2 1 2 1 4 9 9 8 10 12 14 14 13 12 11 11 11 10 11 10 10 12 13 12 12 11 9 10 11 7 7 7 5 4 3 1 2 6 7 6 7 6 5 5 5 6 7 7 8 10 11 12 13 14 14 15 16 17 18 19 20 19 19 17 15 13 12
Wind_Direction
46 43 38 34 29 22 16 12 9 10 12 8 6 4 360 359 358 1 2 357 342 324 312 289 272 260 240 218 208 205 206 204 203 205 210 211 210 211 212 211 212 218 222 212 200 185 186 154 106 61 91 89 76 59 48 50 65 74 67 102 146 132 142 159 156 163 171 176 179 181 185 181 170 165 176 189 174 157 183 207 212 86 118 140 156 172 174 163
38 37 33 29 25 20 16 13 12 14 16 13 11 11 11 11 11 15 20 23 21 4 336 295 255 233 210 197 198 200 206 205 203 203 204 208 209 210 210 209 209 213 216 214 209 192 206 193 78 345 89 91 82 69 50 48 65 87 72 74 120 135 138 154 154 156 163 165 168 175 178 177 172 172 184 193 186 179 193 197 170 124 133 148 159 169 177 166
33 32 30 26 23 21 18 15 15 18 19 16 13 14 15 14 15 19 26 34 39 41 50 118 156 178 170 168 185 197 206 207 205 203 203 205 207 208 207 207 206 206 211 211 202 193 205 190 210 304 114 94 80 69 50 47 57 87 93 83 95 121 138 156 160 156 158 155 160 172 174 175 175 184 194 194 201 203 205 196 128 122 147 146 156 164 172 166
30 29 28 26 23 21 20 19 18 19 19 14 12 14 15 18 21 25 32 39 46 53 70 107 136 139 145 164 181 192 195 192 192 202 208 205 205 206 205 204 201 200 205 205 196 196 202 190 209 217 149 110 79 65 52 41 43 52 126 115 118 139 154 168 169 159 162 157 159 170 174 178 178 189 194 192 214 221 215 217 176 90 11 321 190 169 168 162
28 28 28 26 24 22 21 20 19 18 17 14 14 17 20 23 27 32 37 45 54 57 68 90 121 144 152 163 171 173 164 157 170 189 217 213 204 201 202 201 197 196 199 200 194 193 200 193 192 190 164 134 60 44 31 10 355 8 143 140 139 151 166 179 188 180 174 170 164 166 177 184 185 193 197 197 216 228 222 220 231 249 288 295 237 195 175 159
29 28 27 26 25 22 20 21 19 17 18 17 19 23 28 31 33 37 40 47 56 55 62 79 117 136 134 131 122 142 157 175 182 184 213 221 206 197 197 197 194 193 194 195 191 185 189 181 175 176 156 74 337 350 355 343 321 255 202 142 127 134 157 178 190 189 182 180 174 169 178 188 194 197 202 206 209 219 224 218 222 230 253 267 218 203 187 169
30 29 29 26 24 22 20 20 20 20 21 24 28 34 37 37 37 39 42 48 54 56 60 66 90 92 96 98 87 117 169 201 205 207 218 218 209 196 191 191 191 191 191 191 187 182 181 172 168 178 188 264 288 345 350 326 291 242 225 174 112 115 123 147 174 187 196 199 188 179 181 190 199 200 203 209 205 205 210 212 215 213 213 240 252 225 203 197
32 31 29 26 23 22 20 20 23 24 26 33 38 41 42 43 43 43 46 49 53 56 55 50 67 81 93 93 68 55 204 240 227 225 229 216 203 192 187 187 188 189 188 185 183 181 173 166 171 188 201 218 243 9 351 304 258 230 215 184 124 105 102 131 159 186 213 221 210 189 190 196 198 203 206 209 213 212 208 214 218 207 195 225 281 266 220 208
31 31 29 25 22 22 21 22 26 28 32 40 43 49 52 53 53 53 54 54 56 57 49 42 63 88 87 74 41 23 20 242 234 224 220 208 193 187 184 182 184 186 183 181 182 177 169 169 180 191 194 185 146 6 349 254 239 213 194 192 148 104 97 113 126 127 201 223 222 198 196 202 197 203 213 216 221 219 215 223 222 209 196 214 275 274 225 210
27 28 27 23 21 21 22 25 31 35 40 47 54 63 66 68 68 67 65 63 63 61 57 53 67 88 64 38 23 14 22 217 225 203 191 188 179 179 180 178 182 183 181 181 181 175 170 178 190 193 185 160 112 354 2 158 227 210 186 194 188 127 115 112 117 130 175 216 224 211 202 206 203 208 219 222 222 220 220 225 218 209 200 213 254 272 225 209
24 25 22 19 18 18 20 26 36 42 49 61 71 77 79 80 79 75 71 66 64 61 60 63 70 73 45 26 22 19 40 123 172 167 163 168 168 167 171 177 183 183 183 184 182 177 176 185 196 195 182 148 111 61 43 74 213 223 195 195 191 156 149 137 131 166 204 219 225 224 215 214 213 216 225 224 220 220 220 222 219 212 204 219 249 268 231 208
19 21 19 17 14 15 17 25 39 50 63 76 85 89 88 87 83 78 72 66 62 58 57 61 65 62 46 36 30 38 66 77 124 148 152 159 161 159 161 170 182 187 188 186 184 180 179 188 198 195 176 144 130 115 66 75 180 203 196 201 208 205 221 225 236 237 229 230 234 234 229 228 223 216 225 225 218 220 220 220 224 216 203 214 236 244 229 206
16 18 16 14 12 13 14 24 45 62 79 91 96 95 93 91 87 80 74 67 62 57 55 57 58 54 49 42 34 39 59 67 102 139 148 153 153 156 162 168 177 185 189 191 188 182 185 193 201 200 170 144 152 145 57 88 175 195 200 210 240 246 258 273 258 256 241 239 248 239 236 244 222 200 216 223 217 219 220 219 224 219 204 207 217 224 222 204
13 15 14 11 9 9 12 24 52 78 97 106 106 101 99 97 91 84 75 68 64 59 57 59 59 54 49 43 35 32 41 62 107 138 145 146 145 149 157 164 173 180 184 194 193 187 194 200 204 202 177 165 176 164 41 237 186 200 210 222 240 246 268 283 261 256 245 241 260 247 244 246 189 190 209 219 216 217 221 224 225 217 207 206 209 213 222 215
10 12 11 8 5 5 9 22 58 97 116 126 125 118 113 107 100 92 81 70 65 62 60 63 64 55 45 42 38 31 32 55 125 149 152 149 148 148 147 152 164 172 181 194 194 192 201 206 206 200 186 187 188 176 194 211 190 198 214 229 240 249 273 283 268 261 249 235 243 244 251 237 190 197 211 216 216 216 221 226 224 217 211 209 209 211 223 228
7 8 6 5 3 1 5 15 74 123 144 157 157 151 141 125 114 100 91 85 68 61 58 64 70 54 43 46 45 35 30 42 108 148 166 165 157 150 143 140 148 160 175 188 189 192 204 212 210 198 192 196 200 196 196 209 207 204 218 240 251 259 274 277 269 262 247 235 231 231 241 218 197 209 218 219 218 217 221 224 219 219 216 210 210 211 217 225
2 4 2 360 358 357 1 4 91 165 178 189 196 174 143 109 104 103 99 88 76 74 65 62 69 53 44 52 52 41 37 42 70 125 159 165 155 143 133 126 132 147 159 168 177 187 201 212 215 204 198 202 205 204 208 226 224 215 225 247 261 269 274 271 269 263 248 236 228 226 226 214 204 214 221 223 221 219 221 224 221 221 218 210 210 211 208 211
354 358 358 355 353 353 355 349 287 205 211 223 232 218 245 315 319 255 166 56 73 90 72 62 62 54 47 51 55 54 51 49 61 108 138 141 134 127 122 119 123 134 144 153 166 180 193 205 212 209 202 202 204 208 215 216 224 235 243 259 273 276 273 268 264 263 257 243 237 238 227 216 213 217 218 217 219 219 218 220 224 224 219 213 211 213 209 203
346 351 354 352 343 342 346 336 282 234 241 252 260 267 277 293 300 249 222 267 326 120 102 82 67 59 50 51 61 69 66 62 70 101 123 125 122 118 116 115 117 123 131 138 150 170 188 194 202 207 202 202 207 214 215 198 251 297 286 284 286 279 274 265 253 256 261 256 254 261 251 216 207 216 222 216 215 216 214 215 222 224 222 219 213 213 212 203
344 343 347 346 336 329 333 322 276 254 260 266 269 276 288 300 298 266 251 262 241 160 122 106 85 62 51 55 75 82 80 79 86 106 120 123 119 116 114 112 114 116 119 124 125 159 194 193 197 202 203 205 211 222 229 233 266 295 297 292 284 260 261 252 243 246 245 253 259 251 262 218 195 204 219 221 219 216 215 214 221 227 226 223 217 212 211 204
350 342 338 338 332 321 315 304 279 266 249 257 273 288 304 302 299 300 284 248 204 169 122 108 111 88 63 67 89 90 86 83 92 109 112 112 108 106 113 108 100 105 114 125 131 163 199 198 194 197 203 208 215 234 249 247 255 269 275 282 269 231 229 236 240 241 237 248 255 238 250 207 197 210 217 223 230 224 220 218 218 223 225 224 218 212 212 208
356 349 339 330 327 319 304 290 286 264 243 262 284 297 308 311 321 342 6 151 178 177 135 112 109 101 84 85 90 88 91 89 93 112 112 106 97 97 111 106 91 107 129 173 189 194 208 188 162 165 181 197 205 220 233 232 232 253 255 243 241 251 236 240 241 231 233 242 247 245 244 216 212 229 242 234 235 230 224 221 218 216 217 221 220 216 215 211
353 354 346 331 320 314 302 282 275 262 257 275 298 306 314 322 329 346 358 348 192 174 142 117 112 119 120 107 91 73 80 90 98 116 105 11 335 168 125 99 38 93 127 204 243 239 239 100 114 129 148 183 187 188 205 215 221 246 251 237 248 258 243 248 237 213 221 234 247 255 246 238 236 246 261 260 252 243 229 220 221 220 218 221 222 220 220 214
341 350 350 339 322 307 299 279 264 267 272 285 313 324 325 320 317 335 340 324 263 190 172 130 108 116 127 132 112 75 70 84 88 86 10 307 211 192 196 342 344 36 27 358 257 233 176 113 138 159 162 195 201 209 228 221 223 233 231 236 285 282 257 252 236 208 212 227 244 258 259 256 250 249 259 265 264 260 250 228 222 223 220 220 222 221 224 220
326 335 344 343 330 309 295 281 268 269 276 290 326 348 351 316 300 315 328 322 283 216 212 180 123 117 136 147 118 93 353 98 91 70 33 207 186 176 177 337 18 42 20 352 267 218 158 140 176 192 193 231 254 251 234 217 224 229 177 269 306 307 264 237 227 207 204 224 242 248 257 271 257 244 248 257 260 259 260 248 230 224 220 220 223 224 225 221
310 317 327 337 334 318 298 282 272 267 274 288 322 350 355 283 286 308 328 332 307 206 205 202 181 143 152 161 123 99 260 245 143 105 98 142 170 165 140 11 32 39 18 351 268 219 203 200 227 229 228 249 253 236 216 225 246 243 208 210 314 329 304 240 215 199 199 219 250 246 238 260 277 257 241 250 256 253 254 258 245 233 225 224 227 226 225 221
300 303 308 318 328 322 304 284 273 269 272 278 299 320 289 244 277 318 328 328 314 183 186 206 224 224 183 191 203 230 233 199 134 93 106 140 165 153 133 331 23 31 14 343 294 241 228 243 250 245 240 227 206 188 170 222 252 249 216 220 291 304 335 16 200 196 205 216 246 253 239 250 273 266 253 248 245 247 250 262 258 243 233 232 233 229 222 217
298 295 295 299 309 315 307 289 274 270 269 266 269 279 269 252 269 316 330 329 183 168 178 190 209 168 180 196 209 202 179 132 111 98 109 146 180 179 205 267 275 7 13 281 291 278 222 232 239 226 209 200 194 183 170 167 162 277 238 235 274 277 236 261 260 211 210 220 243 248 229 231 264 257 253 246 239 255 270 275 275 256 242 235 235 236 227 214
298 295 289 287 291 300 304 295 278 269 262 243 241 248 248 241 242 280 313 306 177 190 201 200 199 157 175 184 168 169 184 136 118 125 128 145 168 206 256 230 231 267 239 255 276 277 217 222 254 253 239 238 234 226 227 222 217 221 186 205 271 292 235 244 257 216 205 223 266 254 223 212 259 260 247 238 237 269 279 268 270 265 251 241 235 236 233 216
295 294 289 282 281 284 292 297 283 267 254 225 225 233 228 224 230 260 296 231 222 296 272 200 202 189 179 185 177 183 205 180 168 187 179 175 181 221 239 208 220 274 267 259 272 280 247 230 252 263 257 260 250 239 237 240 242 234 224 238 277 306 258 234 239 216 207 244 313 313 221 216 235 324 246 211 242 287 279 259 252 257 253 246 241 236 236 226
293 290 288 283 277 275 279 286 280 267 249 224 220 223 220 222 223 208 195 236 262 320 295 195 195 213 201 201 211 219 228 217 205 212 209 206 214 241 242 223 245 306 295 286 298 293 255 225 229 225 205 205 206 212 220 228 243 251 255 265 274 291 174 188 211 205 201 284 9 39 207 214 219 319 240 195 230 294 299 275 259 268 262 250 250 244 239 234
291 288 287 283 277 272 270 272 273 269 252 231 225 222 216 217 226 220 212 228 236 330 312 226 210 224 221 230 236 233 243 239 227 223 221 224 237 256 268 262 270 296 309 341 334 298 242 213 214 208 204 227 179 178 199 214 240 242 241 255 271 346 85 138 193 194 199 35 39 37 99 196 228 274 251 208 223 266 304 284 260 266 258 242 252 253 243 238
291 287 284 281 277 269 264 264 264 265 253 232 228 224 211 205 229 226 215 187 110 9 338 251 237 236 229 237 240 226 238 236 228 227 229 240 254 264 275 267 251 256 280 331 350 332 202 200 212 211 214 230 192 194 197 194 202 206 213 222 196 90 70 311 304 343 258 146 38 15 101 158 223 260 213 202 225 235 245 260 252 249 252 240 247 252 245 239
290 287 283 279 273 266 261 259 257 257 249 231 225 219 207 208 223 220 209 196 328 356 351 267 240 227 225 243 248 233 248 238 224 227 230 234 245 264 272 250 223 225 243 261 356 35 135 181 203 206 212 199 149 201 214 190 168 173 184 207 188 137 128 197 229 241 253 243 16 15 63 170 166 162 180 202 234 264 273 284 288 286 285 276 264 256 247 240
291 287 284 276 266 262 257 253 250 248 244 232 223 216 213 219 221 207 196 197 286 331 337 235 228 220 224 246 257 246 255 249 232 231 226 221 233 257 254 214 197 193 217 249 349 71 117 128 187 210 223 215 173 168 176 161 146 139 143 167 155 137 138 131 141 210 260 270 14 25 54 210 207 190 205 229 248 288 313 315 305 302 299 291 283 272 258 247
296 290 284 274 260 256 254 249 244 240 239 232 225 223 226 228 221 206 194 192 275 324 340 193 213 225 230 244 264 266 263 254 238 226 214 208 214 195 164 170 183 190 219 258 323 114 110 75 162 215 223 218 216 194 152 150 163 145 140 154 130 118 136 128 119 79 29 76 33 26 38 241 216 210 236 253 255 295 318 304 298 302 305 306 305 292 273 258
301 293 284 274 259 252 248 241 238 237 235 231 229 231 236 236 223 208 199 200 263 315 336 351 255 234 233 255 334 323 283 249 227 218 210 208 206 187 173 169 165 178 205 237 282 169 130 86 87 111 135 171 201 189 161 138 162 164 151 155 135 116 140 152 129 39 52 80 275 327 241 221 209 239 257 258 261 271 276 283 301 309 312 315 314 310 300 278
301 296 288 275 258 246 235 229 230 232 231 232 234 237 242 241 230 218 218 235 264 282 299 326 338 289 265 321 343 353 315 238 219 217 207 202 197 181 180 186 181 190 211 246 277 240 178 141 97 87 120 149 148 164 165 129 124 152 145 152 149 127 143 144 120 85 74 62 300 312 260 230 226 248 284 273 247 252 263 280 300 309 314 313 309 308 310 302
303 301 287 271 254 239 230 224 223 226 228 232 235 239 244 245 240 237 241 252 263 263 258 277 318 280 280 302 320 1 358 240 220 225 208 197 193 174 173 188 192 196 207 252 269 236 179 171 142 87 130 156 138 130 144 127 108 97 147 150 149 124 125 112 102 131 138 147 247 308 300 259 231 233 267 242 231 241 261 277 296 311 314 311 307 303 303 302
306 303 278 256 242 228 222 220 222 225 229 234 237 240 246 251 251 247 249 256 254 250 251 256 271 269 278 296 296 313 345 311 230 232 216 198 193 177 176 197 208 201 187 177 246 236 178 168 165 105 150 170 127 94 132 153 150 172 166 157 140 116 118 112 98 100 117 146 155 131 295 266 229 229 259 248 237 252 273 290 307 315 314 311 310 305 301 298
303 300 273 239 226 220 209 207 219 225 228 235 241 243 248 256 257 246 242 248 243 241 251 255 258 260 265 284 284 266 287 314 242 231 222 202 194 183 184 201 204 186 163 150 207 237 213 198 194 310 174 153 90 75 149 165 159 166 162 149 137 129 129 130 120 128 137 143 168 164 246 258 237 249 260 242 242 268 291 309 318 317 314 312 311 309 307 301
297 300 277 232 215 216 211 205 212 221 226 234 242 244 249 254 254 247 234 230 230 235 245 243 242 267 271 271 267 249 251 268 213 224 217 201 201 194 185 188 182 170 165 151 131 267 246 243 247 277 84 111 112 136 143 130 128 155 149 141 151 144 134 138 151 183 171 167 195 190 233 256 243 254 251 237 257 286 302 312 318 319 316 316 315 312 310 304
288 292 273 235 212 213 220 222 227 233 239 248 250 247 250 251 251 244 222 210 217 220 224 231 237 269 280 264 250 236 235 238 231 223 197 191 207 201 181 180 181 188 207 237 290 293 271 251 234 179 142 140 148 152 144 130 132 158 142 154 181 172 148 126 113 172 175 180 194 190 219 248 248 255 249 251 277 296 305 309 314 317 315 316 317 313 309 303
277 277 266 243 222 218 225 235 245 248 249 252 248 243 243 246 248 242 224 211 210 211 212 219 228 249 263 252 242 236 233 229 196 179 165 175 192 186 175 179 194 220 249 286 294 279 268 253 227 170 136 145 162 161 159 151 121 114 131 187 192 192 185 162 137 150 173 201 216 214 232 251 266 270 265 275 290 300 307 310 312 315 315 315 315 312 306 302
268 266 257 244 234 226 228 236 244 246 246 247 243 239 241 243 243 243 236 220 205 207 221 227 229 248 251 239 234 229 222 204 165 157 159 168 173 173 176 183 201 239 268 346 360 307 279 242 221 200 175 166 169 171 183 183 83 60 124 187 192 198 193 166 161 173 197 217 218 224 252 274 286 286 282 290 297 302 309 312 312 315 317 316 314 310 304 300
262 259 247 236 234 232 231 235 240 243 249 254 250 246 250 252 249 246 241 228 209 211 251 259 244 238 233 227 230 226 220 210 184 173 169 169 170 176 189 196 195 202 218 55 45 29 32 218 222 221 204 180 168 147 148 179 47 35 6 197 194 199 198 176 177 191 202 207 220 238 263 281 288 289 289 296 301 304 309 311 312 314 316 315 313 310 304 298
261 256 244 228 226 230 233 236 240 243 250 257 258 258 264 273 276 254 238 234 227 236 268 265 239 228 231 233 238 233 229 221 207 197 183 178 182 181 186 197 200 194 169 93 69 54 57 72 211 204 184 180 173 142 146 225 322 333 318 228 196 198 199 190 194 207 210 216 235 246 259 273 282 288 294 300 302 306 311 313 313 313 312 312 310 307 304 299
263 256 250 232 221 224 228 233 237 239 245 253 257 265 272 283 305 285 240 229 228 246 283 268 232 230 239 240 242 239 231 225 214 208 203 195 191 182 181 192 201 205 206 180 164 83 76 82 112 136 131 161 195 194 208 249 315 322 319 250 201 203 202 201 217 236 241 253 265 262 265 276 287 294 298 301 303 311 318 315 313 312 310 309 308 306 303 302
262 257 254 245 233 227 225 228 232 234 241 249 252 258 263 269 290 292 252 236 230 238 297 284 241 237 240 238 240 237 229 228 220 207 208 204 194 187 185 190 194 202 213 208 205 161 111 104 112 116 105 116 168 218 220 249 311 328 338 255 206 205 200 207 231 233 231 265 280 277 279 289 301 303 301 304 311 318 319 315 312 310 307 307 308 305 301 301
261 258 256 252 246 238 231 228 230 232 237 242 244 247 253 267 279 255 215 267 264 235 279 310 256 240 234 225 222 219 215 220 222 210 208 205 195 189 189 188 192 200 203 201 207 198 160 142 148 143 115 127 149 168 202 251 308 333 4 168 197 195 187 192 212 207 222 277 286 280 282 295 307 308 306 312 317 318 315 313 311 308 306 306 306 303 300 302
264 261 259 255 251 245 238 235 231 231 234 236 238 239 242 257 274 249 214 250 351 43 52 40 58 240 239 226 213 210 210 217 222 220 211 204 198 199 202 199 198 205 202 197 205 208 192 178 178 177 171 171 174 195 243 271 311 297 208 179 181 188 187 190 208 236 273 287 284 278 285 302 311 309 310 313 314 313 311 312 311 309 307 307 306 302 299 302
266 263 261 257 252 246 242 240 235 232 237 238 236 238 240 250 265 257 236 218 147 77 289 245 177 235 245 238 211 198 204 212 216 219 221 224 221 217 220 217 211 216 212 204 202 201 202 205 195 189 198 200 199 228 262 276 314 179 182 177 179 194 202 213 240 263 280 283 285 292 301 308 309 306 308 310 311 313 313 312 312 311 309 308 306 303 299 300